Location: Bagnara
(41.0500°N, 14.7833°E)
Time: 19:47:44
(UTC+00:00)

ATLAS 5 CENTAUR R/B - Pass Details

Date: 26 October 2021
Orbit: 497 x 1159 km, 63.4° (Epoch: 25 November)

Event Time Altitude Azimuth Distance (km) Brightness Sun altitude
Rises 17:11:19 0° 276° (W) 2,657 6.6 -13.2°
Reaches altitude 10° 17:15:14 10° 317° (NW) 1,873 4.6 -14.0°
Maximum altitude 17:16:13 11° 331° (NNW) 1,861 4.3 -14.2°
Drops below altitude 10° 17:17:15 10° 344° (NNW) 1,941 4.2 -14.4°
Sets 17:21:41 0° 23° (NNE) 3,027 4.8 -15.2°
Enters shadow 17:21:42 - 23° (NNE) 3,032 4.8 -15.2°
